{"data":{"norad_id":64127,"epoch":"2026-09-20T07:43:10.445088Z","epoch_age_seconds":155831,"freshness":"FRESH","line1":"1 64127U 25111E   26263.32164867  .00146637  00000+0  11257-2 0  9990","line2":"2 64127  43.0003 240.3167 0001244 268.2802  91.7923 15.70850873 77250","mean_motion":15.70850873,"eccentricity":0.0001244,"inclination_deg":43.0003,"raan_deg":240.3167,"arg_perigee_deg":268.2802,"mean_anomaly_deg":91.7923,"bstar":0.0011257,"rev_number":7725,"period_min":91.670063960298,"perigee_km":355.62620031641,"apogee_km":357.3017690414,"semimajor_km":6734.6009846789,"source":"CELESTRAK","updated_at":"2026-09-21T09:00:35.233137Z"}}